Change the Weather History Date:

Sunday, March 23, 2014

  Actual Average Record
Temperature  
Mean Temperature 42 °F -  
Max Temperature 50 °F 54 °F 66 °F (2012)
Min Temperature 35 °F 38 °F 23 °F (2006)
Degree Days  
Heating Degree Days 22    
Moisture  
Dew Point 36 °F    
Average Humidity 81    
Maximum Humidity 96    
Minimum Humidity 45    
Precipitation  
Precipitation 0.01 in - - ()
Sea Level Pressure  
Sea Level Pressure 29.69 in    
Wind  
Wind Speed 7 mph ()    
Max Wind Speed 14 mph    
Max Gust Speed 28 mph    
Visibility 8.7 miles    
Events Rain    
Averages and records for this station are not official NWS values.
T = Trace of Precipitation, MM = Missing Value Source: Averaged Metar Reports

Daily Weather History Graph

Daily Weather History Graph

Search for Another Location

Airport or City:

Trip Planner

Search our weather history database for the weather conditions in past years. The results will help you decide how hot, cold, wet, or windy it might be!

Date:

Astronomy

Mar. 23, 2014 Rise Set
Actual Time 6:25 AM CET 6:47 PM CET
Civil Twilight 5:51 AM CET 7:21 PM CET
Nautical Twilight 5:11 AM CET 8:01 PM CET
Astronomical Twilight 4:29 AM CET 8:44 PM CET
Moon 1:25 AM CET (3/23) 10:13 AM CET (3/23)
Length of Visible Light 13h 29m
Length of Day
12h 22m
Waning Gibbous, 57% of the Moon is Illuminated
Mar 23
Waning Gibbous
Mar 24
Last Quarter
Mar 30
New
Apr 7
First Quarter
Apr 15
Full

Hourly Weather History & Observations

Time (CET) Temp. Windchill Dew Point Humidity Pressure Visibility Wind Dir Wind Speed Gust Speed Precip Events Conditions
12:00 AM 40 °F - 38 °F 89% 29.65 in 9 mi South 6.7 mph - -   Mostly Cloudy
12:20 AM 41.0 °F 35.8 °F 37.4 °F 87% 29.62 in 6.2 mi South 8.1 mph - N/A   Scattered Clouds
12:50 AM 41.0 °F 35.8 °F 37.4 °F 87% 29.62 in 6.2 mi SSW 8.1 mph - N/A   Scattered Clouds
1:00 AM 40 °F - 38 °F 88% 29.65 in 9 mi SSW 6.7 mph - -   Partly Cloudy
1:20 AM 39.2 °F 33.6 °F 37.4 °F 93% 29.62 in 6.2 mi SSW 8.1 mph - N/A   Partly Cloudy
1:50 AM 39.2 °F 35.0 °F 37.4 °F 93% 29.62 in 6.2 mi SSW 5.8 mph - N/A   Partly Cloudy
2:00 AM 39 °F - 37 °F 89% 29.63 in 9 mi SSW 6.7 mph - -   Scattered Clouds
2:20 AM 39.2 °F 35.0 °F 37.4 °F 93% 29.62 in - South 5.8 mph - N/A   Clear
2:50 AM 39.2 °F 35.0 °F 35.6 °F 87% 29.62 in - South 5.8 mph - N/A   Clear
3:00 AM 39 °F - 36 °F 86% 29.64 in 9 mi South 6.7 mph - -   Scattered Clouds
3:20 AM 39.2 °F 35.0 °F 37.4 °F 93% 29.62 in 6.2 mi South 5.8 mph - N/A   Mostly Cloudy
3:50 AM 39.2 °F 35.9 °F 37.4 °F 93% 29.62 in 6.2 mi South 4.6 mph - N/A   Mostly Cloudy
4:00 AM 39 °F - 37 °F 88% 29.63 in 9 mi South 4.5 mph - -   Mostly Cloudy
4:20 AM 39.2 °F 34.2 °F 37.4 °F 93% 29.62 in 6.2 mi South 6.9 mph - N/A   Mostly Cloudy
4:50 AM 39.2 °F 33.6 °F 35.6 °F 87% 29.62 in 6.2 mi South 8.1 mph - N/A   Mostly Cloudy
5:00 AM 39 °F - 36 °F 86% 29.63 in 9 mi South 8.9 mph - -   Mostly Cloudy
5:20 AM 39.2 °F 34.2 °F 35.6 °F 87% 29.62 in - South 6.9 mph - N/A   Clear
5:50 AM 37.4 °F 32.8 °F 35.6 °F 93% 29.62 in - South 5.8 mph - N/A   Clear
6:00 AM 37 °F - 35 °F 91% 29.64 in 9 mi South 4.5 mph - -   Scattered Clouds
6:20 AM 35.6 °F 30.7 °F 33.8 °F 93% 29.62 in - SSE 5.8 mph - N/A   Clear
6:50 AM 35.6 °F 30.7 °F 33.8 °F 93% 29.65 in 5.6 mi SSE 5.8 mph - N/A   Unknown
7:00 AM 35 °F - 34 °F 96% 29.67 in 6 mi SSE 4.5 mph - -   Scattered Clouds
7:20 AM 37.4 °F 33.8 °F 35.6 °F 93% 29.65 in 5.6 mi South 4.6 mph - N/A   Scattered Clouds
7:50 AM 37.4 °F 32.8 °F 35.6 °F 93% 29.65 in 6.2 mi South 5.8 mph - N/A   Mostly Cloudy
8:00 AM 38 °F - 36 °F 90% 29.68 in 9 mi South 4.5 mph - -   Mostly Cloudy
8:20 AM 39.2 °F 34.2 °F 37.4 °F 93% 29.65 in 6.2 mi South 6.9 mph - N/A   Mostly Cloudy
8:50 AM 41.0 °F 36.4 °F 37.4 °F 87% 29.68 in 6.2 mi SSW 6.9 mph - N/A   Mostly Cloudy
9:00 AM 40 °F - 37 °F 85% 29.69 in 11 mi SSW 6.7 mph - -   Mostly Cloudy
9:20 AM 41.0 °F 35.2 °F 37.4 °F 87% 29.68 in 6.2 mi SSW 9.2 mph - N/A   Mostly Cloudy
9:50 AM 42.8 °F 38.0 °F 39.2 °F 87% 29.68 in 6.2 mi SSW 8.1 mph - N/A   Scattered Clouds
10:00 AM 43 °F - 39 °F 80% 29.70 in 11 mi SSW 8.9 mph - -   Mostly Cloudy
10:20 AM 44.6 °F 38.8 °F 37.4 °F 76% 29.68 in 6.2 mi SSW 11.5 mph - N/A   Scattered Clouds
10:50 AM 44.6 °F 38.8 °F 37.4 °F 76% 29.68 in 6.2 mi SW 11.5 mph - N/A   Mostly Cloudy
11:00 AM 45 °F - 38 °F 70% 29.70 in 12 mi SW 11.2 mph - -   Mostly Cloudy
11:20 AM 46.4 °F 40.7 °F 37.4 °F 71% 29.68 in 6.2 mi SSW 12.7 mph - N/A   Mostly Cloudy
11:50 AM 46.4 °F 41.9 °F 35.6 °F 66% 29.68 in 6.2 mi SW 9.2 mph - N/A   Mostly Cloudy
12:00 PM 47 °F - 37 °F 58% 29.70 in 16 mi SW 8.9 mph - -   Mostly Cloudy
12:20 PM 48.2 °F - 35.6 °F 62% 29.68 in 6.2 mi SSW 10.4 mph - N/A   Mostly Cloudy
12:50 PM 46.4 °F 42.4 °F 35.6 °F 66% 29.68 in 6.2 mi SSW 8.1 mph - N/A Rain Light Rain Showers
1:00 PM 46 °F - 36 °F 59% 29.71 in 19 mi SSW 8.9 mph - -   Mostly Cloudy
1:20 PM 48.2 °F - 35.6 °F 62% 29.68 in 6.2 mi SSW 9.2 mph - N/A Rain Light Rain Showers
1:50 PM 48.2 °F - 33.8 °F 58% 29.68 in 6.2 mi WSW 10.4 mph - N/A Rain Light Rain Showers
2:00 PM 49 °F - 34 °F 45% 29.69 in 19 mi WSW 11.2 mph - -   Mostly Cloudy
2:20 PM 46.4 °F 40.4 °F 35.6 °F 66% 29.68 in 6.2 mi WSW 13.8 mph - N/A Rain Light Rain Showers
2:50 PM 44.6 °F 40.2 °F 39.2 °F 81% 29.68 in 6.2 mi SSW 8.1 mph - N/A Rain Light Rain Showers
3:00 PM 44 °F - 38 °F 74% 29.71 in 16 mi SSW 8.9 mph - - Rain Light Rain Showers
3:20 PM 46.4 °F 41.9 °F 39.2 °F 76% 29.68 in 6.2 mi SSW 9.2 mph - N/A Rain Light Rain Showers
3:50 PM 48.2 °F - 39.2 °F 71% 29.68 in 6.2 mi SW 11.5 mph - N/A Rain Light Rain Showers
4:00 PM 48 °F - 40 °F 65% 29.72 in 19 mi SW 11.2 mph - - Rain Light Rain Showers
4:20 PM 48.2 °F - 35.6 °F 62% 29.68 in 6.2 mi SW 11.5 mph - N/A Rain Light Rain Showers
4:50 PM 42.8 °F 36.2 °F 35.6 °F 76% 29.71 in 6.2 mi West 12.7 mph 27.6 mph N/A Rain Rain Showers
5:00 PM 44 °F - 36 °F 66% 29.73 in 7 mi West 13.4 mph - - Rain Light Rain Showers
5:20 PM 42.8 °F 38.0 °F 37.4 °F 81% 29.71 in 6.2 mi WNW 8.1 mph - N/A Rain Light Rain Showers
5:50 PM 41.0 °F 35.2 °F 35.6 °F 81% 29.74 in 6.2 mi West 9.2 mph - N/A Rain Light Rain Showers
6:00 PM 42 °F - 36 °F 71% 29.75 in 16 mi West 8.9 mph - - Rain Light Rain Showers
6:20 PM 41.0 °F - 35.6 °F 81% 29.74 in 6.2 mi WNW 2.3 mph - N/A   Scattered Clouds
6:50 PM 39.2 °F - 35.6 °F 87% 29.74 in 6.2 mi Variable 1.2 mph - N/A   Scattered Clouds
7:00 PM 40 °F - 36 °F 78% 29.77 in 16 mi SSW 2.2 mph - -   Scattered Clouds
7:20 PM 39.2 °F 37.0 °F 35.6 °F 87% 29.74 in 6.2 mi SSE 3.5 mph - N/A   Scattered Clouds
7:50 PM 37.4 °F - 35.6 °F 93% 29.77 in 6.2 mi ESE 1.2 mph - N/A   Scattered Clouds
8:00 PM 38 °F - 35 °F 84% 29.78 in 19 mi ESE 2.2 mph - -   Scattered Clouds
8:20 PM 37.4 °F - 35.6 °F 93% 29.77 in 6.2 mi South 2.3 mph - N/A   Mostly Cloudy
8:50 PM 41.0 °F 39.0 °F 35.6 °F 81% 29.77 in 6.2 mi SW 3.5 mph - N/A   Mostly Cloudy
9:00 PM 40 °F - 36 °F 81% 29.80 in 19 mi SW 2.2 mph - -   Mostly Cloudy
9:20 PM 39.2 °F 37.0 °F 35.6 °F 87% 29.77 in 6.2 mi SW 3.5 mph - N/A   Mostly Cloudy
9:50 PM 41.0 °F 39.0 °F 35.6 °F 81% 29.77 in 6.2 mi SW 3.5 mph - N/A   Mostly Cloudy
10:00 PM 40 °F - 36 °F 82% 29.81 in 19 mi SW 2.2 mph - -   Mostly Cloudy
10:20 PM 39.2 °F 37.0 °F 35.6 °F 87% 29.80 in 6.2 mi SSW 3.5 mph - N/A   Mostly Cloudy
10:50 PM 39.2 °F 37.0 °F 35.6 °F 87% 29.80 in 6.2 mi SW 3.5 mph - N/A   Mostly Cloudy
11:00 PM 40 °F - 36 °F 80% 29.81 in 19 mi SW 4.5 mph - -   Mostly Cloudy
11:20 PM 39.2 °F 37.0 °F 35.6 °F 87% 29.80 in 6.2 mi South 3.5 mph - N/A   Mostly Cloudy
11:50 PM 39.2 °F 35.9 °F 35.6 °F 87% 29.80 in 6.2 mi SW 4.6 mph - N/A   Mostly Cloudy